Wind_Speed
4 4 3 3 3 2 2 1 1 1 2 2 3 3 3 3 3 4 4 5 5 5 6 6 6 7 8 8 9 9 10 11 11 11 11 12 12 12 13 14 14 14 14
3 3 2 2 2 2 2 3 2 2 2 2 3 3 3 4 4 5 5 5 6 7 7 7 8 8 9 9 10 11 11 12 12 13 13 14 14 14 14 14 14 14 15
4 3 3 2 2 2 2 2 2 2 2 2 3 3 3 4 5 6 6 6 7 7 8 8 9 9 9 10 11 11 12 12 13 14 14 15 15 15 15 15 14 15 15
5 4 4 3 3 2 3 3 3 3 3 3 3 3 4 5 6 6 7 7 7 7 8 9 9 9 10 11 11 12 13 13 14 14 14 14 15 15 15 15 15 15 15
6 5 4 3 3 3 4 3 4 4 4 4 4 4 5 5 6 6 6 7 6 7 8 9 10 10 10 11 12 12 13 14 14 14 14 14 15 15 16 16 16 15 16
6 5 5 5 4 4 4 3 4 4 5 5 5 5 6 5 6 6 6 7 7 8 8 9 11 11 11 11 12 12 13 14 14 14 14 14 15 15 16 16 17 17 16
7 7 6 5 6 5 5 4 4 5 5 5 6 6 6 6 7 7 7 8 8 9 9 9 10 10 11 12 12 12 13 13 14 14 14 14 15 16 16 16 17 17 17
7 7 6 6 7 6 6 5 5 5 5 5 6 6 7 7 7 7 8 9 9 9 9 9 9 10 11 11 12 12 12 12 13 14 14 15 16 16 16 16 17 17 17
7 6 6 7 7 7 7 7 6 6 6 6 6 7 7 7 8 9 9 9 10 10 10 10 10 10 11 11 11 12 13 13 14 13 14 15 16 16 16 17 18 18 17
6 6 7 7 8 8 8 8 7 7 7 7 7 8 7 8 9 9 9 10 10 11 11 10 11 10 10 11 12 12 13 13 13 13 14 14 15 16 17 17 17 18 18
6 7 7 8 8 8 9 8 8 8 8 8 9 8 9 10 10 10 10 10 11 11 11 11 11 11 11 11 12 12 13 13 14 14 14 15 15 15 15 16 17 18 18
7 7 7 8 9 9 9 9 8 9 9 9 10 9 9 10 10 10 10 10 10 10 11 11 11 11 12 12 13 14 14 14 15 15 16 16 16 16 15 16 16 17 18
7 7 8 8 9 9 9 9 9 9 9 10 10 10 10 10 10 10 11 12 12 12 12 12 12 12 12 13 14 13 13 14 15 16 16 16 17 17 17 16 17 17 17
7 7 8 8 9 9 9 9 9 9 9 10 10 10 10 11 11 12 12 13 13 14 14 13 13 13 13 13 14 15 15 15 15 16 16 17 17 17 17 17 17 18 18
7 7 8 8 9 9 10 10 10 9 10 10 10 11 11 11 13 13 13 13 14 14 14 14 14 13 14 14 15 15 16 16 16 16 17 17 17 17 17 17 18 18 19
9 9 9 9 10 10 11 11 10 10 10 11 11 12 12 12 13 13 13 14 15 14 13 14 14 14 14 15 15 16 17 17 17 17 17 17 17 17 17 17 18 19 19
10 10 10 10 11 12 12 12 11 12 12 12 13 13 13 14 14 14 15 15 15 15 14 14 15 15 15 16 16 17 17 17 17 17 17 17 17 17 17 17 17 17 18
11 11 11 12 13 13 13 13 13 13 13 13 13 14 14 15 15 16 16 16 16 15 15 16 17 17 17 17 17 17 18 18 17 17 17 17 17 18 18 17 17 18 18
12 12 13 14 14 13 13 14 14 15 14 14 14 14 15 15 16 17 17 17 17 17 17 18 18 18 18 18 18 19 19 19 18 18 17 17 17 18 18 18 18 17 17
13 14 14 15 15 15 15 16 16 16 16 16 15 16 16 16 17 17 18 18 18 19 19 19 19 19 20 20 20 20 20 19 19 18 18 18 18 18 18 18 18 17 17
15 15 16 16 16 16 17 17 17 17 18 17 17 17 17 18 19 19 19 20 20 20 21 21 21 21 21 21 21 21 21 21 20 19 19 19 19 19 19 19 19 18 18
16 17 17 17 18 18 19 19 19 20 20 19 18 19 19 19 21 21 22 22 22 23 22 23 23 22 22 22 22 22 22 22 21 21 21 20 20 20 20 19 19 19 19
18 18 18 19 19 20 20 20 21 21 21 20 21 21 21 21 22 23 23 24 24 25 24 24 24 23 24 23 23 23 23 23 22 22 22 22 22 21 20 20 20 20 20
20 20 20 21 21 21 21 21 21 21 21 21 22 22 23 23 23 24 24 25 25 25 25 25 24 24 24 25 25 25 24 24 24 23 22 22 22 22 22 21 21 21 21
22 22 22 23 23 23 22 22 22 22 23 23 24 24 25 25 25 26 25 26 26 26 26 26 25 24 25 26 26 26 26 25 25 25 24 24 23 23 23 23 23 22 23
23 24 24 24 24 24 24 24 24 24 25 25 25 26 26 27 27 27 27 27 26 26 26 26 26 26 27 27 27 27 27 27 26 25 25 25 25 25 25 25 25 24 24
Wind_Direction
69 62 64 66 67 60 46 22 357 333 306 278 263 254 248 259 278 289 286 279 277 279 284 278 277 276 277 278 280 280 282 285 284 281 278 274 274 275 274 268 262 256 255
54 49 50 47 41 31 28 19 0 337 325 302 285 273 273 272 277 284 288 282 276 278 283 280 279 281 279 280 281 279 282 282 280 281 280 276 273 271 270 271 267 259 256
38 29 36 40 37 19 11 6 347 346 340 327 305 291 283 281 283 284 287 285 280 278 279 281 282 283 282 281 282 282 283 282 280 280 278 274 271 269 267 264 263 262 259
41 35 35 36 36 29 17 357 348 341 340 336 327 313 299 291 291 291 290 288 285 285 287 288 288 286 286 285 284 283 283 282 282 281 280 276 269 265 265 260 259 260 259
39 37 32 32 32 16 1 351 347 342 338 333 330 328 324 307 295 293 298 297 293 294 293 290 290 290 291 290 287 285 284 284 283 283 282 278 271 267 265 263 261 261 258
38 36 34 28 23 13 1 350 339 342 333 328 322 314 317 319 311 306 307 305 302 300 298 294 290 290 290 291 288 288 289 288 285 284 283 279 274 269 267 265 263 262 262
40 38 35 24 16 9 4 357 344 340 336 334 328 321 318 314 301 303 307 307 303 298 296 297 296 295 294 291 292 291 291 290 288 285 284 281 276 271 267 265 263 262 260
38 34 33 28 21 15 6 360 355 346 340 334 328 321 319 318 306 302 303 305 304 302 302 298 298 299 297 295 297 296 295 295 294 289 284 281 276 272 271 267 266 265 263
30 36 33 26 22 15 10 7 359 351 345 341 333 326 320 315 312 311 305 305 308 311 305 300 298 302 303 301 299 298 297 297 299 296 291 286 279 275 272 269 265 266 264
25 27 25 20 19 14 8 5 360 353 348 343 339 334 327 321 315 313 310 309 310 312 310 306 300 302 302 299 300 301 301 301 301 298 296 292 285 279 276 271 266 265 262
19 18 16 11 6 3 1 2 1 355 352 349 347 343 336 333 330 320 316 311 309 311 312 310 306 299 301 299 300 300 303 303 301 297 297 295 291 284 278 274 270 266 263
12 10 5 1 358 355 356 355 353 349 347 346 345 344 341 340 337 328 322 321 317 314 312 311 311 305 302 300 304 303 304 302 301 297 295 293 291 287 281 278 273 269 265
3 359 357 353 350 350 347 346 345 343 341 341 341 340 338 336 333 332 330 327 323 320 319 314 312 312 309 307 307 306 304 302 301 299 297 294 291 288 284 280 276 272 269
350 349 349 349 348 347 343 339 340 339 337 337 337 338 338 335 333 331 328 327 324 318 316 316 314 312 311 310 311 309 305 306 304 302 301 297 293 290 285 283 279 277 273
337 337 343 348 349 347 342 336 334 334 333 333 332 331 331 331 332 332 330 328 326 324 320 316 315 315 317 314 312 310 308 308 308 305 303 299 295 291 288 285 284 279 275
340 338 342 343 343 342 337 333 333 333 331 330 327 324 323 324 327 327 327 327 325 323 319 318 318 317 315 314 312 310 309 305 306 304 304 302 298 296 291 286 284 280 277
341 339 340 338 335 335 334 333 330 333 331 328 325 321 319 319 320 322 322 322 321 321 318 315 315 312 310 311 311 309 309 307 307 306 304 304 301 299 294 290 286 286 283
333 334 333 331 330 329 327 329 327 327 328 324 321 319 316 315 315 320 320 319 317 316 314 314 313 312 310 309 309 310 309 309 308 305 303 303 301 299 298 296 289 287 284
326 327 326 325 324 322 321 321 320 319 322 320 316 314 313 312 313 316 319 318 317 314 312 312 312 311 310 309 309 309 310 309 308 307 305 303 301 301 298 297 294 291 287
320 319 319 317 317 316 316 315 314 315 316 315 312 311 311 311 312 313 315 318 318 316 314 312 312 311 311 309 306 306 306 305 305 305 304 301 301 301 298 296 294 292 288
320 316 314 312 311 310 310 310 309 309 309 310 309 308 308 309 309 309 310 312 314 314 312 311 310 309 309 308 305 302 303 303 301 300 299 298 298 298 296 293 292 290 289
315 313 312 310 308 307 308 307 306 305 307 307 306 304 303 303 303 304 306 307 309 311 311 309 308 306 306 304 301 300 300 299 298 297 296 295 296 296 294 291 290 288 288
309 308 308 307 305 304 307 307 306 304 305 304 304 303 302 301 300 301 303 305 306 307 306 306 306 305 303 302 300 298 298 299 297 297 296 295 293 293 292 290 289 287 287
307 306 304 304 305 305 303 302 303 304 304 305 303 302 301 301 301 301 302 303 304 304 305 304 303 303 302 301 300 298 298 299 299 297 296 294 292 291 290 288 288 287 286
306 306 307 306 304 303 301 301 301 302 303 304 303 302 302 303 302 302 301 301 301 302 302 304 303 303 303 302 300 298 298 297 296 295 295 293 290 289 288 287 285 285 284
302 303 303 303 303 302 300 299 299 299 300 301 301 302 302 302 300 299 298 298 299 300 301 302 304 305 305 302 298 296 296 295 294 293 293 292 291 288 286 285 284 283 283
Height
5894 5893 5893 5892 5892 5891 5890 5890 5890 5889 5889 5888 5888 5887 5887 5887 5887 5886 5886 5885 5885 5884 5884 5883 5882 5882 5881 5880 5880 5879 5878 5877 5876 5876 5875 5874 5874 5873 5873 5872 5872 5872 5873
5894 5894 5893 5893 5892 5891 5891 5890 5890 5889 5888 5888 5887 5887 5886 5886 5886 5885 5884 5884 5883 5883 5882 5881 5880 5879 5879 5878 5877 5876 5876 5875 5874 5873 5872 5871 5871 5870 5870 5869 5869 5869 5869
5895 5894 5893 5893 5892 5892 5891 5890 5890 5889 5888 5887 5886 5886 5886 5885 5885 5884 5883 5882 5881 5881 5880 5879 5878 5877 5876 5875 5874 5874 5873 5872 5871 5870 5869 5868 5867 5867 5866 5866 5866 5866 5865
5895 5894 5894 5893 5892 5892 5891 5890 5890 5888 5887 5887 5886 5885 5884 5884 5883 5882 5881 5881 5880 5879 5878 5877 5876 5874 5873 5873 5872 5871 5870 5869 5867 5866 5865 5864 5863 5863 5862 5862 5862 5862 5862
5896 5895 5894 5893 5892 5892 5891 5890 5889 5888 5887 5886 5885 5884 5883 5882 5882 5881 5880 5879 5877 5876 5875 5874 5873 5872 5871 5870 5869 5868 5866 5865 5864 5863 5862 5861 5860 5859 5858 5858 5858 5858 5858
5896 5895 5894 5893 5892 5891 5890 5889 5888 5887 5886 5885 5884 5883 5882 5881 5880 5879 5878 5877 5875 5874 5873 5872 5871 5869 5868 5867 5866 5864 5863 5862 5860 5859 5858 5857 5856 5855 5854 5854 5854 5854 5854
5896 5895 5894 5893 5892 5891 5890 5889 5888 5887 5886 5885 5883 5882 5881 5880 5879 5878 5876 5875 5874 5872 5871 5870 5868 5867 5865 5864 5863 5861 5860 5858 5857 5855 5854 5853 5852 5851 5850 5850 5850 5850 5850
5897 5895 5894 5893 5892 5890 5889 5888 5887 5886 5885 5884 5883 5881 5880 5879 5877 5876 5875 5873 5872 5870 5868 5867 5865 5864 5862 5861 5859 5858 5856 5855 5853 5852 5850 5848 5848 5847 5846 5846 5846 5846 5846
5897 5896 5894 5893 5892 5890 5889 5887 5886 5885 5884 5883 5881 5880 5879 5877 5876 5874 5872 5871 5869 5868 5866 5864 5863 5861 5859 5858 5856 5855 5853 5852 5850 5848 5847 5845 5844 5843 5842 5842 5842 5841 5841
5898 5896 5895 5893 5892 5890 5889 5887 5885 5884 5883 5881 5880 5878 5877 5876 5874 5872 5871 5869 5867 5865 5863 5862 5860 5858 5857 5855 5854 5852 5850 5849 5847 5845 5843 5842 5840 5839 5838 5838 5837 5837 5837
5898 5896 5895 5893 5892 5890 5888 5887 5885 5883 5882 5880 5878 5877 5875 5874 5872 5870 5869 5867 5865 5862 5860 5859 5857 5855 5854 5852 5851 5849 5847 5845 5844 5842 5840 5838 5837 5835 5834 5833 5832 5832 5832
5897 5896 5894 5893 5891 5889 5887 5886 5884 5882 5881 5879 5877 5875 5873 5872 5870 5868 5866 5864 5862 5860 5857 5856 5855 5853 5851 5849 5847 5845 5843 5842 5840 5838 5836 5835 5833 5832 5830 5829 5828 5827 5827
5896 5895 5893 5892 5890 5888 5886 5884 5883 5881 5879 5877 5876 5874 5872 5870 5868 5866 5864 5862 5859 5857 5855 5854 5852 5850 5848 5846 5844 5842 5840 5838 5836 5834 5832 5831 5829 5828 5826 5825 5823 5822 5822
5896 5894 5892 5891 5889 5887 5885 5883 5881 5880 5878 5876 5874 5872 5870 5868 5866 5864 5862 5860 5857 5855 5853 5851 5849 5847 5845 5843 5841 5839 5837 5835 5832 5830 5828 5826 5825 5823 5822 5820 5819 5818 5817
5894 5893 5891 5889 5887 5885 5883 5882 5880 5878 5876 5874 5872 5870 5868 5866 5864 5861 5859 5857 5855 5852 5850 5848 5846 5844 5842 5840 5838 5835 5833 5831 5828 5826 5824 5822 5820 5819 5817 5815 5814 5813 5812
5893 5891 5889 5888 5886 5884 5882 5880 5878 5876 5874 5872 5870 5868 5866 5864 5861 5859 5857 5854 5852 5850 5848 5846 5843 5841 5839 5836 5834 5832 5829 5827 5824 5822 5820 5818 5816 5814 5812 5811 5809 5808 5807
5891 5889 5888 5886 5884 5882 5880 5878 5876 5874 5872 5870 5868 5866 5863 5861 5859 5856 5854 5852 5849 5847 5844 5842 5840 5838 5835 5833 5830 5828 5825 5822 5820 5818 5815 5813 5811 5809 5807 5805 5804 5803 5801
5889 5887 5885 5883 5881 5879 5877 5875 5873 5871 5869 5867 5865 5863 5860 5858 5856 5853 5851 5848 5846 5843 5841 5839 5837 5834 5832 5829 5827 5824 5821 5819 5816 5814 5811 5809 5807 5805 5802 5800 5799 5797 5796
5887 5885 5883 5881 5879 5877 5875 5872 5870 5868 5866 5864 5861 5859 5857 5855 5852 5850 5847 5844 5842 5839 5837 5835 5832 5830 5828 5825 5823 5820 5817 5815 5812 5809 5807 5804 5802 5800 5797 5795 5794 5792 5790
5884 5882 5880 5877 5875 5873 5871 5869 5867 5864 5862 5860 5857 5855 5853 5851 5848 5846 5843 5841 5838 5835 5833 5830 5828 5825 5823 5820 5818 5815 5813 5810 5807 5805 5802 5800 5797 5795 5793 5790 5789 5787 5785
5880 5878 5876 5873 5871 5869 5867 5865 5862 5860 5858 5856 5853 5851 5848 5846 5844 5841 5839 5836 5834 5831 5828 5825 5823 5820 5817 5815 5812 5810 5807 5805 5802 5800 5797 5795 5792 5790 5787 5785 5783 5782 5780
5876 5873 5871 5869 5866 5864 5862 5860 5858 5855 5853 5851 5848 5846 5843 5841 5838 5836 5833 5831 5828 5826 5823 5820 5817 5814 5812 5809 5806 5804 5801 5799 5797 5795 5792 5790 5787 5785 5782 5780 5778 5776 5775
5871 5868 5865 5863 5861 5859 5857 5855 5852 5850 5847 5845 5842 5840 5837 5834 5832 5830 5827 5825 5822 5819 5816 5814 5811 5809 5806 5803 5800 5798 5795 5793 5791 5788 5786 5783 5781 5779 5777 5775 5773 5771 5769
5865 5862 5858 5857 5855 5853 5851 5849 5846 5844 5841 5839 5836 5833 5830 5828 5825 5823 5820 5818 5815 5813 5810 5807 5805 5802 5800 5797 5794 5791 5789 5787 5784 5782 5779 5777 5775 5773 5771 5769 5767 5765 5763
5860 5857 5854 5852 5850 5847 5844 5842 5840 5837 5835 5833 5830 5827 5824 5821 5818 5816 5813 5811 5808 5806 5803 5800 5797 5794 5792 5790 5787 5784 5782 5780 5778 5775 5772 5770 5768 5766 5764 5762 5760 5758 5756
5855 5852 5849 5846 5843 5841 5838 5835 5833 5831 5828 5826 5823 5820 5817 5814 5811 5807 5805 5803 5801 5798 5796 5793 5790 5788 5785 5782 5779 5777 5774 5772 5769 5768 5765 5762 5760 5758 5757 5755 5753 5751 5749